Aurora, NE

6:56 PM CST on December 08, 2016 (GMT -0600)
Aurora Municipal

Weather History for KAUH - February, 2012

Change the Weather History Date:

Sunday, February 19, 2012

  Actual Average Record
Temperature  
Mean Temperature 32 °F -  
Max Temperature 42 °F 40 °F 65 °F (2016)
Min Temperature 22 °F 19 °F -11 °F (1993)
Degree Days  
Heating Degree Days 33    
Moisture  
Dew Point 25 °F    
Average Humidity 78    
Maximum Humidity 88    
Minimum Humidity 66    
Precipitation  
Precipitation 0.00 in - - ()
Sea Level Pressure  
Sea Level Pressure 29.96 in    
Wind  
Wind Speed 9 mph (SSE)    
Max Wind Speed 16 mph    
Max Gust Speed 20 mph    
Visibility 10 miles    
Events      
Averages and records for this station are not official NWS values.
T = Trace of Precipitation, MM = Missing Value Source: NWS Daily Summary

Daily Weather History Graph

Daily Weather History Graph

Search for Another Location

Airport or City:

Trip Planner

Search our weather history database for the weather conditions in past years. The results will help you decide how hot, cold, wet, or windy it might be!

Date:

Astronomy

Feb. 19, 2012 Rise Set
Actual Time 7:21 AM CST 6:10 PM CST
Civil Twilight 6:53 AM CST 6:38 PM CST
Nautical Twilight 6:21 AM CST 7:10 PM CST
Astronomical Twilight 5:49 AM CST 7:42 PM CST
Moon 5:43 AM CST (2/19) 4:13 PM CST (2/19)
Length of Visible Light 11h 45m
Length of Day
10h 49m
Waning Crescent, 5% of the Moon is Illuminated
Feb 19
Waning Crescent
Feb 21
New
Feb 29
First Quarter
Mar 8
Full
Mar 14
Last Quarter

Hourly Weather History & Observations

Time (CST) Temp. Windchill Dew Point Humidity Pressure Visibility Wind Dir Wind Speed Gust Speed Precip Events Conditions
12:15 AM 23.2 °F 15.0 °F 18.1 °F 81% 30.08 in 10.0 mi SSE 6.9 mph - N/A   Clear
12:35 AM 23.0 °F 14.7 °F 17.8 °F 80% 30.08 in 10.0 mi SSE 6.9 mph - N/A   Clear
12:55 AM 23.4 °F 16.2 °F 18.3 °F 81% 30.07 in 10.0 mi SSE 5.8 mph - N/A   Clear
1:15 AM 23.0 °F 15.8 °F 18.1 °F 82% 30.07 in 10.0 mi SSE 5.8 mph - N/A   Clear
1:35 AM 22.8 °F 14.5 °F 17.8 °F 81% 30.07 in 10.0 mi SSE 6.9 mph - N/A   Clear
1:55 AM 23.4 °F 16.2 °F 18.3 °F 81% 30.06 in 10.0 mi South 5.8 mph - N/A   Clear
2:15 AM 25.2 °F 15.7 °F 19.4 °F 79% 30.06 in 10.0 mi South 9.2 mph - N/A   Clear
2:35 AM 25.2 °F 15.1 °F 19.4 °F 79% 30.06 in 10.0 mi South 10.4 mph - N/A   Clear
2:55 AM 25.3 °F 15.3 °F 19.6 °F 79% 30.05 in 10.0 mi South 10.4 mph - N/A   Clear
3:15 AM 24.4 °F 15.6 °F 19.2 °F 81% 30.05 in 10.0 mi SSE 8.1 mph - N/A   Clear
3:35 AM 23.4 °F 15.2 °F 19.0 °F 84% 30.04 in 10.0 mi SSE 6.9 mph - N/A   Clear
3:55 AM 22.6 °F 14.3 °F 18.7 °F 85% 30.03 in 10.0 mi SSE 6.9 mph - N/A   Clear
4:35 AM 24.4 °F 14.2 °F 20.1 °F 84% 30.03 in 10.0 mi South 10.4 mph - N/A   Clear
4:55 AM 24.3 °F 14.6 °F 20.1 °F 84% 30.03 in 10.0 mi SSE 9.2 mph - N/A   Clear
5:15 AM 23.7 °F 16.6 °F 19.9 °F 85% 30.03 in 10.0 mi South 5.8 mph - N/A   Clear
5:35 AM 23.0 °F 13.9 °F 19.4 °F 86% 30.03 in 10.0 mi South 8.1 mph - N/A   Clear
5:55 AM 23.0 °F 14.7 °F 19.4 °F 86% 30.03 in 10.0 mi South 6.9 mph - N/A   Clear
6:15 AM 23.4 °F 15.2 °F 19.9 °F 87% 30.03 in 10.0 mi South 6.9 mph - N/A   Clear
6:35 AM 23.0 °F 14.7 °F 19.6 °F 87% 30.03 in 10.0 mi South 6.9 mph - N/A   Clear
6:55 AM 23.0 °F 14.7 °F 19.9 °F 88% 30.03 in 10.0 mi South 6.9 mph - N/A   Clear
7:15 AM 23.2 °F 14.1 °F 19.9 °F 87% 30.03 in 10.0 mi South 8.1 mph - N/A   Clear
7:35 AM 22.6 °F 14.3 °F 19.4 °F 87% 30.03 in 10.0 mi South 6.9 mph - N/A   Clear
7:55 AM 22.3 °F 13.0 °F 19.0 °F 87% 30.03 in 10.0 mi SSE 8.1 mph - N/A   Clear
8:15 AM 23.0 °F 14.7 °F 19.4 °F 86% 30.04 in 10.0 mi SSE 6.9 mph - N/A   Clear
8:35 AM 23.5 °F 16.4 °F 19.9 °F 86% 30.04 in 10.0 mi SSE 5.8 mph - N/A   Clear
8:55 AM 26.1 °F 18.4 °F 21.2 °F 82% 30.03 in 10.0 mi South 6.9 mph - N/A   Clear
9:15 AM 28.0 °F 20.0 °F 22.1 °F 78% 30.03 in 10.0 mi South 8.1 mph - N/A   Clear
9:35 AM 29.1 °F 20.6 °F 22.5 °F 76% 30.03 in 10.0 mi South 9.2 mph - N/A   Clear
9:55 AM 30.4 °F 20.5 °F 23.0 °F 74% 30.03 in 10.0 mi South 12.7 mph - N/A   Clear
10:15 AM 31.5 °F 23.5 °F 23.9 °F 74% 30.02 in 10.0 mi South 9.2 mph - N/A   Clear
10:35 AM 32.0 °F 23.0 °F 24.8 °F 75% 30.02 in 10.0 mi South 11.5 mph - N/A   Clear
10:55 AM 33.6 °F 25.0 °F 25.7 °F 73% 30.02 in 10.0 mi South 11.5 mph - N/A   Clear
11:15 AM 34.7 °F 26.4 °F 26.6 °F 72% 30.01 in 10.0 mi South 11.5 mph - N/A   Clear
12:35 PM 37.8 °F 29.0 °F 28.9 °F 71% 29.98 in 10.0 mi South 15.0 mph - N/A   Clear
12:55 PM 38.3 °F 30.9 °F 29.5 °F 71% 29.97 in 10.0 mi South 11.5 mph 19.6 mph N/A   Clear
1:35 PM 39.6 °F 33.5 °F 30.6 °F 70% 29.95 in 10.0 mi SSE 9.2 mph - N/A   Clear
1:55 PM 40.1 °F 34.1 °F 30.9 °F 70% 29.95 in 10.0 mi South 9.2 mph - N/A   Clear
2:15 PM 41.4 °F 35.2 °F 31.6 °F 68% 29.93 in 10.0 mi SSE 10.4 mph - N/A   Clear
2:35 PM 41.7 °F 35.6 °F 32.0 °F 68% 29.92 in 10.0 mi SSE 10.4 mph - N/A   Clear
2:55 PM 41.4 °F 35.2 °F 32.0 °F 69% 29.91 in 10.0 mi SSE 10.4 mph - N/A   Clear
3:15 PM 42.8 °F 36.6 °F 32.2 °F 66% 29.91 in 10.0 mi SSE 11.5 mph - N/A   Clear
3:35 PM 41.9 °F 36.9 °F 32.4 °F 69% 29.91 in 10.0 mi SSE 8.1 mph - N/A   Clear
3:55 PM 41.4 °F 36.2 °F 32.5 °F 71% 29.90 in 10.0 mi SSE 8.1 mph - N/A   Scattered Clouds
4:15 PM 42.1 °F 36.6 °F 32.7 °F 69% 29.89 in 10.0 mi SSE 9.2 mph - N/A   Scattered Clouds
4:35 PM 41.2 °F 35.5 °F 32.0 °F 70% 29.88 in 10.0 mi SE 9.2 mph - N/A   Clear
4:55 PM 40.1 °F 34.1 °F 32.5 °F 74% 29.88 in 10.0 mi SE 9.2 mph - N/A   Clear
5:15 PM 38.3 °F 31.4 °F 32.9 °F 81% 29.87 in 10.0 mi SE 10.4 mph - N/A   Clear
5:35 PM 38.5 °F 31.6 °F 32.5 °F 79% 29.87 in 10.0 mi SE 10.4 mph - N/A   Clear
5:55 PM 38.3 °F 32.5 °F 32.0 °F 78% 29.87 in 10.0 mi SE 8.1 mph - N/A   Clear
6:15 PM 36.1 °F 29.9 °F 32.0 °F 85% 29.87 in 10.0 mi SE 8.1 mph - N/A   Clear
6:35 PM 37.2 °F 30.0 °F 31.6 °F 80% 29.87 in 10.0 mi SE 10.4 mph - N/A   Clear
6:55 PM 36.7 °F 29.9 °F 31.1 °F 80% 29.87 in 10.0 mi SE 9.2 mph - N/A   Clear
7:15 PM 36.3 °F 28.9 °F 30.9 °F 81% 29.87 in 10.0 mi SE 10.4 mph - N/A   Clear
7:35 PM 36.5 °F 28.7 °F 30.7 °F 80% 29.87 in 10.0 mi SE 11.5 mph - N/A   Clear
7:55 PM 36.1 °F 29.3 °F 30.6 °F 80% 29.87 in 10.0 mi SE 9.2 mph - N/A   Clear
8:15 PM 34.2 °F 27.5 °F 30.2 °F 85% 29.86 in 10.0 mi SE 8.1 mph - N/A   Clear
8:35 PM 35.8 °F 28.3 °F 30.2 °F 80% 29.85 in 10.0 mi SE 10.4 mph - N/A   Clear
9:15 PM 35.6 °F 28.0 °F 30.2 °F 81% 29.86 in 10.0 mi SE 10.4 mph - N/A   Overcast
9:35 PM 35.6 °F 28.0 °F 30.2 °F 81% 29.87 in 10.0 mi SE 10.4 mph - N/A   Overcast
9:55 PM 36.9 °F 28.7 °F 29.1 °F 74% 29.86 in 10.0 mi SSE 12.7 mph - N/A   Overcast
10:15 PM 36.7 °F 28.0 °F 29.1 °F 74% 29.86 in 10.0 mi SSE 13.8 mph - N/A   Overcast
10:35 PM 36.9 °F 27.8 °F 28.4 °F 71% 29.86 in 10.0 mi SE 15.0 mph - N/A   Overcast
10:55 PM 37.0 °F 28.1 °F 28.2 °F 70% 29.85 in 10.0 mi SE 15.0 mph - N/A   Overcast
11:15 PM 36.7 °F 27.2 °F 28.4 °F 72% 29.83 in 10.0 mi SE 16.1 mph - N/A   Overcast
11:35 PM 36.7 °F 27.6 °F 28.4 °F 72% 29.83 in 10.0 mi SE 15.0 mph - N/A   Overcast
11:55 PM 36.7 °F 26.6 °F 28.6 °F 72% 29.82 in 10.0 mi SE 18.4 mph - N/A   Overcast